Flag for Laos Weather past 2 weeks in Vientiane, Laos

Now
79 °F

Thunderstorms. Scattered clouds.


Feels Like: 82 °F
Forecast: 76 / 92 °F
Wind: 9 mph from West

Location: Vientiane Airport

Current Time: Aug 23, 2014 at 7:35:18 PM

Latest Report: Aug 23, 2014 at 6:00 PM


Visibility: 3 mi

Pressure: 29.71 "Hg

Humidity: 84%

Dew point: 73 °F

Location of VientianeLocation

Historic Weather in Vientiane — Graph

°F

Vientiane temperature yesterday

Maximum temperature yesterday: 84 °F (at 5:00 PM)
Minimum temperature yesterday: 75 °F (at 6:00 AM)
Average temperature yesterday: 80 °F

Past Weeks' High & Low Weather Summary

 TemperatureHumidityPressure
High93 °F (Aug 11, 3:00 PM)100% (Aug 9, 6:00 AM)29.92 "Hg (Aug 9, 6:00 AM)
Low75 °F (Aug 10, 6:00 AM)53% (Aug 11, 4:00 PM)29.56 "Hg (Aug 12, 4:00 PM)
Average83 °F81%29.74 "Hg
* Reported Aug 8 6:00 PM — Aug 23 6:00 PM, Vientiane, Weather by CustomWeather, © 2014

Note: Actual official high and low records may vary slightly from our data, if they occured in-between our weather recording intervals... More about our weather records

Advertising

Vientiane weather history for previous 24 hours

 ConditionsComfort  
Time TempWeatherWind HumidityBarometerVisibility
6:00 PM
Aug 23
79 °FThunderstorms. Scattered clouds.9 mph84%29.71 "Hg3 mi
5:30 PM90 °FRain. Broken clouds.9 mph67%29.71 "Hg2 mi
5:00 PM91 °FRain. Scattered clouds.9 mph63%29.71 "Hg5 mi
4:30 PM91 °FScattered clouds.12 mph63%29.71 "HgN/A
4:00 PM91 °FScattered clouds.9 mph63%29.71 "HgN/A
3:30 PM91 °FScattered clouds.2 mph67%29.71 "HgN/A
3:00 PM90 °FScattered clouds.2 mph71%29.74 "HgN/A
2:00 PM90 °FScattered clouds.2 mph71%29.77 "HgN/A
1:30 PM91 °FScattered clouds.2 mph67%29.77 "HgN/A
1:00 PM90 °FScattered clouds.2 mph71%29.80 "HgN/A
12:00 PM88 °FScattered clouds.2 mph75%29.83 "HgN/A
11:30 AM88 °FBroken clouds.2 mph75%29.83 "HgN/A
11:00 AM86 °FBroken clouds.2 mph79%29.86 "HgN/A
10:30 AM84 °FScattered clouds.2 mph79%29.86 "Hg4 mi
10:00 AM82 °FScattered clouds.2 mph84%29.86 "Hg4 mi
9:30 AM81 °FFog.2 mph89%29.86 "Hg3 mi
9:00 AM81 °FFog.2 mph89%29.86 "Hg3 mi
8:30 AM81 °FFog.2 mph89%29.83 "Hg3 mi
8:00 AM79 °FFog.2 mph94%29.83 "Hg3 mi
7:30 AM79 °FFog.2 mph94%29.83 "Hg2 mi
7:00 AM79 °FFog.2 mph94%29.83 "Hg2 mi
6:30 AM79 °FFog.2 mph94%29.80 "Hg2 mi
6:00 AM79 °FFog.2 mph94%29.80 "Hg2 mi
10:30 PM
Aug 22
81 °FFog.2 mph89%29.83 "Hg2 mi
10:00 PM81 °FFog.2 mph89%29.83 "Hg2 mi
9:30 PM81 °FFog.2 mph89%29.80 "Hg2 mi
9:00 PM81 °FFog.2 mph89%29.80 "Hg2 mi
8:30 PM81 °FFog.2 mph89%29.77 "Hg2 mi
8:00 PM81 °FFog.2 mph89%29.77 "Hg2 mi
7:30 PM82 °FFog.2 mph84%29.77 "Hg2 mi
7:00 PM82 °FFog.2 mph84%29.77 "Hg3 mi
Weather by CustomWeather, © 2014

See weather overviewHow to use our weather pages